Ana Sayfa
METAR-TAF:

METAR-TAF

Havaalanları :

Sallisaw, Oklahoma, Amerika Birleşik Devletleri

Enlem: 35-26-17N, Boylam: 094-48-10W, yükseklik: 161 m

Güncel hava durumu gözlemi

Rapor saat 14:35 UTC de 19 dakika önce yapıldı.
Sakin rüzgar
Sıcaklık 25°C
Nem 89%
Basınç 1021 hPa
Görüş mesafesi: 16.1 km
1600 ft yükseklikte çok bulutlu

METAR: KJSV 241435Z AUTO 00000KT 10SM OVC016 25/23 A3016 RMK AO2

Saat: 09:54 (14:54 UTC)


TAF: eksik

4.000'den fazla havaalanı için hava durumu gözlemleri ve tahminleri (METAR ve TAF raporları).

Kullanılabilir istasyonlar harita üzerinde sarı ve kırmızı noktalarla gösterilir.

İstasyonun adını görmek için fareyi noktanın üzerinde gezdirin.

Sonrasında hava gözlem ve tahminlerini görmek için tıklayın.

Haritayı değiştirmek için: yaklaştırmak için siyah artı işaretli yeşil düğmeye ve uzaklaştırmak için de eksi işaretli düğmeye hızla tıklayın; bitişik haritalar için yeşil okları kullanın.


METAR-TAF: